Regional Weather Roundup
Issued by NWS Grand Forks, ND

Home | Current Version | Previous Version | Graphics & Text | Print | Product List | Glossary On
Versions: 1 2 3 4 5 6 7 8 9 10 11 12 13 14 15 16 17 18 19 20 21 22 23 24 25 26 27 28 29 30 31 32 33 34 35 36 37 38 39 40 41 42 43 44 45 46 47 48 49 50
000
ASUS43 KFGF 201231
RWRFGF
PRAIRIE TO PINES  WEATHER ROUNDUP
NATIONAL WEATHER SERVICE EASTERN NORTH DAKOTA/GRAND FORKS ND
600 AM CST TUE FEB 20 2018

 **SATELLITE DATA USED TO AUGMENT SKY COVER AT AUTOMATED STATIONS**
 *****  WEATHER ACROSS EASTERN NORTH DAKOTA  *****

CITY           SKY/WX    TMP DP  RH WIND       PRES   REMARKS
GRAND FORKS    LGT SNOW   4   0  83 NW14      30.12R FOG     WCI -14
6HR MIN TEMP:   4; 6HR MAX TEMP:   5; 6HR PCP: TRACE;

GRAND FRKS AFB CLOUDY     3  -2  78 N15       30.10F WCI -15
GRAND FRKS NWS   N/A      3   1  92 N9        30.09R WCI -12
DEVILS LAKE    LGT SNOW   3   0  85 NW6       30.09R FOG     WCI  -8
6HR MIN TEMP:   2; 6HR MAX TEMP:   3; 6HR PCP: TRACE;

FARGO          LGT SNOW   6   2  83 NW18      30.05R FOG     WCI -13
WAHPETON ARPT  CLOUDY     5   1  85 N17       30.01R WCI -14
$$

 ***** WEATHER ACROSS CENTRAL AND WESTERN NORTH DAKOTA  *****

CITY           SKY/WX    TMP DP  RH WIND       PRES   REMARKS
BISMARCK       LGT SNOW   5   1  83 NW7       30.11F FOG     WCI  -7
6HR MIN TEMP:   4; 6HR MAX TEMP:   5; 6HR PCP:  0.01;

MINOT          LGT SNOW   4  -1  80 W9        30.08S WCI -10
6HR MIN TEMP:   1; 6HR MAX TEMP:   5; 6HR PCP: TRACE;

JAMESTOWN      LGT SNOW   3   0  87 N15       30.06F FOG     WCI -16
6HR MIN TEMP:   3; 6HR MAX TEMP:   3; 6HR PCP: TRACE;

MINOT AFB      CLOUDY     3  -2  78 NW5       30.08R WCI  -6
GARRISON         N/A     -2  -5  87 NW8       30.07F WCI -17
WILLISTON      CLOUDY     0  -5  79 W8        30.09F WCI -14
6HR MIN TEMP:   0; 6HR MAX TEMP:   3; 6HR PCP:  0.01;

DICKINSON      CLOUDY    -7 -10  87 W8        30.03R WCI -23
6HR MIN TEMP:  -7; 6HR MAX TEMP:   1; 6HR PCP: TRACE;

HETTINGER      LGT SNOW  -1  -6  79 W9        30.05R WCI -16
6HR MIN TEMP:  -1; 6HR MAX TEMP:   0; 6HR PCP: TRACE;

$$

 *****  OTHER AIRPORT OBSERVATIONS IN OUR AREA  *****

CITY           SKY/WX    TMP DP  RH WIND       PRES   REMARKS
WALHALLA       FLURRIES   3   3 100 NW5       30.14R WCI  -6
GRAFTON AIRPOR CLOUDY     3   0  85 NW10      30.16R HAZE    WCI -12
VALLEY CITY AR LGT SNOW   1   0  92 N16G23    30.07S WCI -18
CANDO          CLOUDY     3   0  85 NW6       30.11F FOG     WCI  -8
CAVALIER APRT  LGT SNOW   3   0  85 NW8       30.14R WCI -10
GWINNER          N/A      5   0  78 N20G25    30.03R HAZE    WCI -15
SHEYENNE NWR     N/A      4   1  86 N10       29.95S WCI -11
ROLLA          CLOUDY     3  -2  78 NW7       30.05S WCI  -9
 ***** THE ABOVE OBSERVATIONS ARE NON NWS ARE NOT QUALITY
       CONTROLLED AND MAY MIS-REPORT RAIN FOR SNOW...
$$

  *****  WEATHER ACROSS NORTHERN MINNESOTA  *****

CITY           SKY/WX    TMP DP  RH WIND       PRES   REMARKS
FLAG ISLAND    LGT SNOW   3  -2  78 N13       30.01F WCI -14
WARROAD        LGT SNOW   3   0  85 N6        30.02F WCI  -8
ROSEAU         NOT AVBL
HALLOCK        MOCLDY     3  -2  78 NW8       30.12R WCI -10
THF RVR FALLS  LGT SNOW   3   0  85 N10       30.04R FOG     WCI -12
6HR MIN TEMP:   4; 6HR MAX TEMP:   6; 6HR PCP: TRACE;

BAUDETTE       LGT SNOW   3  -1  83 N8        29.97F FOG     WCI -10
6HR MIN TEMP:   4; 6HR MAX TEMP:   6; 6HR PCP: TRACE;

WASKISH        LGT SNOW   5   1  85 NE5       29.97F WCI  -4
CROOKSTON      LGT SNOW   5   1  85 N18       30.08R WCI -15
STEPHEN NDAWN    N/A      1  -2  85 NW8         N/A  WCI -12
GREENBUSH NDAW   N/A      3   0  85 N10         N/A  WCI -12
$$
  *****  WEATHER ACROSS CENTRAL AND WEST MINNESOTA  *****

CITY           SKY/WX    TMP DP  RH WIND       PRES   REMARKS
FOSSTON        LGT SNOW   3  -2  78 N10       29.98R WCI -12
BEMIDJI        LGT SNOW   4   0  83 N7        29.93F WCI  -8
6HR MIN TEMP:   5; 6HR MAX TEMP:   7;

PARK RAPIDS    LGT SNOW   7   2  80 N12       29.89F WCI  -8
6HR MIN TEMP:   7; 6HR MAX TEMP:   9; 6HR PCP:  0.09;

ELBOW LAKE     FLURRIES   8   4  85 NW8       29.95R WCI  -5
6HR MIN TEMP:   8; 6HR MAX TEMP:  11;

WADENA         FLURRIES   7   1  78 N9        29.90S WCI  -7
DETROIT LAKES  LGT SNOW   9   5  85 NW7       29.95R WCI  -3
MOORHEAD       LGT SNOW   5   0  78 N18       30.04R WCI -15
FERGUS FALLS   CLOUDY     7   1  78 N8        29.97R WCI  -6
MORRIS MN      FLURRIES   9   5  85 NW14      29.94R WCI  -8
STAPLES        FLURRIES   7   3  85 N8        29.90F WCI  -6
$$
  *****  WEATHER ELSEWHERE ACROSS MINNESOTA  *****

CITY           SKY/WX    TMP DP  RH WIND       PRES   REMARKS
DULUTH         LGT SNOW   8   4  83 N12       29.83F WCI  -7
6HR MIN TEMP:   9; 6HR MAX TEMP:  14; 6HR PCP:  0.13;

INTRNTL FALLS  LGT SNOW   4   0  83 N7        30.00S VSB 3/4 WCI  -8
6HR MIN TEMP:   4; 6HR MAX TEMP:   7; 6HR PCP:  0.13;

ELY            LGT SNOW   3   0  85 CALM      29.92F VSB 3/4
CLOQUET        LGT SNOW   9   3  78 N8        29.85F WCI  -4
WHEATON        CLOUDY     5   0  78 NW14G22   30.01R WCI -12
BRAINERD       MOCLDY     9   3  77 N13       29.88F WCI  -7
6HR MIN TEMP:   9; 6HR MAX TEMP:  12; 6HR PCP:  0.05;

HIBBING        LGT SNOW   4   0  83 N8        29.90F FOG     WCI  -9
6HR MIN TEMP:   4; 6HR MAX TEMP:   7; 6HR PCP:  0.10;

ALEXANDRIA     CLOUDY     9   5  84 N12       29.88F WCI  -6
6HR MIN TEMP:   9; 6HR MAX TEMP:  13; 6HR PCP:  0.06;

SAINT CLOUD    CLOUDY    12   9  87 N10       29.86F WCI  -1
6HR MIN TEMP:  12; 6HR MAX TEMP:  15; 6HR PCP:  0.15;

MINNEAPOLIS    FRZ DRZL  20  19  96 N7        29.84F FOG     WCI  11
6HR MIN TEMP:  20; 6HR MAX TEMP:  21; 6HR PCP:  0.05;

$$

  *****  WEATHER ACROSS SOUTH DAKOTA  *****

CITY           SKY/WX    TMP DP  RH WIND       PRES   REMARKS
SIOUX FALLS    LGT SNOW   9   5  84 NW12      29.96S FOG     WCI  -6
6HR MIN TEMP:   9; 6HR MAX TEMP:  14; 6HR PCP:  0.16;

BROOKINGS      LGT SNOW   7   1  78 NW13      29.93R FOG     WCI  -9
WATERTOWN      CLOUDY     4   0  83 NW13      29.93R WCI -13
6HR MIN TEMP:   3; 6HR MAX TEMP:   5; 6HR PCP:  0.04;

HURON          LGT SNOW   4   0  83 NW17      30.04S FOG     WCI -16
6HR MIN TEMP:   3; 6HR MAX TEMP:   5; 6HR PCP:  0.05;

SISSETON         N/A      4   1  88 NW15      30.00R WCI -14
ABERDEEN       LGT SNOW   5   1  83 N18       30.06R FOG     WCI -15
6HR MIN TEMP:   4; 6HR MAX TEMP:   5; 6HR PCP:  0.02;

MITCHELL       LGT SNOW   5   0  79 N14       30.04S WCI -12
PIERRE         LGT SNOW   3  -1  83 NW15      30.08R FOG     WCI -16
6HR MIN TEMP:   3; 6HR MAX TEMP:   4; 6HR PCP: TRACE;

MOBRIDGE       LGT SNOW   5  -1  76 NW12      30.07R WCI -11
RAPID CITY     FLURRIES  -2  -7  79 N13       30.01R WCI -20
6HR MIN TEMP:  -5; 6HR MAX TEMP:  -1; 6HR PCP:  0.01;

$$

  *****  SOME WEATHER IN NEARBY STATES *****

CITY           SKY/WX    TMP DP  RH WIND       PRES   REMARKS
GLASGOW MT     MOCLDY   -13 -17  82 W6        30.08F WCI -27
6HR MIN TEMP: -13; 6HR MAX TEMP:  -4;

GREAT FALLS MT FAIR     -15 -21  74 SW12      29.97R WCI -36
6HR MIN TEMP: -20; 6HR MAX TEMP: -10;

CHEYENNE WY    FAIR      -8 -11  86 W3        29.74R
6HR MIN TEMP:  -9; 6HR MAX TEMP:  -4;

SCOTTSBLUFF NE FAIR      -6 -10  83 NW9       29.96R WCI -23
6HR MIN TEMP:  -8; 6HR MAX TEMP:   1; 6HR PCP: TRACE;

OMAHA NE       FRZ DRZL  21  18  88 NW14      29.95R WCI   8
6HR MIN TEMP:  20; 6HR MAX TEMP:  23; 6HR PCP:  0.06;

DES MOINES IA  FRZ DRZL  28  26  92 NW10      29.84F WCI  19
6HR MIN TEMP:  27; 6HR MAX TEMP:  30; 6HR PCP:  0.16;

DAVENPORT IA   CLOUDY    37  34  89 NW12      29.86R
6HR MIN TEMP:  37; 6HR MAX TEMP:  40; 6HR PCP:  0.47;

CHICAGO IL     RAIN      59  57  93 S12       29.82R FOG
6HR MIN TEMP:  58; 6HR MAX TEMP:  61; 6HR PCP:  0.93;

EAU CLAIRE WI  CLOUDY    21  19  92 CALM      29.81S
6HR MIN TEMP:  20; 6HR MAX TEMP:  21; 6HR PCP:  0.03;

LA CROSSE WI   CLOUDY    32  30  92 CALM      29.79F
6HR MIN TEMP:  31; 6HR MAX TEMP:  33; 6HR PCP:  0.18;

$$

  *****  SOME NATIONAL WEATHER *****

CITY           SKY/WX    TMP DP  RH WIND       PRES   REMARKS
LA GUARDIA NY  DRIZZLE   52  50  93 W12       30.32R FOG
6HR MIN TEMP:  48; 6HR MAX TEMP:  51; 6HR PCP: TRACE;

RALEIGH NC     FOG       52  52 100 CALM      30.44R VSB 1/4
6HR MIN TEMP:  50; 6HR MAX TEMP:  53; 6HR PCP: TRACE;

ATLANTA GA     FOG       60  60 100 SE7       30.36R VSB 1/2
6HR MIN TEMP:  58; 6HR MAX TEMP:  60;

NEW ORLEANS LA FAIR      70  69  97 SE12      30.12R
6HR MIN TEMP:  70; 6HR MAX TEMP:  71;

OKLAHOMA CITY  CLOUDY    68  63  84 S20G28    29.74R
6HR MIN TEMP:  47; 6HR MAX TEMP:  68;

ALBUQUERQUE NM FLURRIES  29  18  63 N12       29.92R WCI  19
6HR MIN TEMP:  29; 6HR MAX TEMP:  45; 6HR PCP:  0.01;

SALT LAKE CITY CLOUDY    20  16  84 N6        29.94S WCI  12
6HR MIN TEMP:  19; 6HR M



USA.gov is the U.S. government's official web portal to all federal, state and local government web resources and services.